| time (UTC) | temp F | wind direction | speed MPH | gust MPH | rain 1hr in | rain 24hr in | rain mn in | humidity % | barometer mb |
| 20260507213046 | 58 | 277 | 9.0 | 18.0 | 0.00 | 0.08 | 0.00 | 28 | 1004.4 |
| 20260507211549 | 58 | 257 | 7.0 | 16.0 | 0.00 | 0.08 | 0.00 | 31 | 1004.4 |
| 20260507210047 | 57 | 287 | 8.0 | 19.0 | 0.00 | 0.08 | 0.00 | 33 | 1004.3 |
| 20260507204540 | 57 | 314 | 7.0 | 15.0 | 0.00 | 0.16 | 0.00 | 32 | 1004.2 |
| 20260507203102 | 58 | 274 | 9.0 | 16.0 | 0.00 | 0.16 | 0.00 | 31 | 1004.3 |
| 20260507201556 | 58 | 330 | 7.0 | 13.0 | 0.00 | 0.16 | 0.00 | 31 | 1004.3 |
| 20260507200104 | 58 | 272 | 5.0 | 21.0 | 0.00 | 0.16 | 0.00 | 36 | 1004.3 |
| 20260507194545 | 58 | 327 | 9.0 | 18.0 | 0.00 | 0.25 | 0.00 | 36 | 1004.4 |
| 20260507193049 | 57 | 313 | 11.0 | 20.0 | 0.00 | 0.25 | 0.00 | 32 | 1004.5 |
| 20260507191541 | 58 | 309 | 13.0 | 24.0 | 0.00 | 0.25 | 0.00 | 33 | 1004.4 |
| 20260507190041 | 57 | 258 | 11.0 | 21.0 | 0.00 | 0.25 | 0.00 | 33 | 1004.8 |
| 20260507184555 | 58 | 284 | 13.0 | 22.0 | 0.00 | 0.46 | 0.00 | 31 | 1004.7 |
| 20260507183048 | 57 | 329 | 11.0 | 18.0 | 0.00 | 0.46 | 0.00 | 38 | 1004.7 |
| 20260507181548 | 58 | 298 | 10.0 | 18.0 | 0.00 | 0.46 | 0.00 | 37 | 1004.8 |
| 20260507180050 | 58 | 273 | 13.0 | 20.0 | 0.00 | 0.46 | 0.00 | 40 | 1004.7 |
| 20260507174544 | 56 | 288 | 10.0 | 22.0 | 0.00 | 0.46 | 0.00 | 35 | 1004.8 |
| 20260507173049 | 57 | 344 | 16.0 | 28.0 | 0.00 | 0.46 | 0.00 | 38 | 1004.9 |
| 20260507171545 | 56 | 257 | 10.0 | 19.0 | 0.00 | 0.46 | 0.00 | 45 | 1005.1 |
| 20260507170057 | 55 | 259 | 12.0 | 19.0 | 0.00 | 0.46 | 0.00 | 53 | 1005.4 |
| 20260507164557 | 55 | 280 | 6.0 | 16.0 | 0.00 | 0.46 | 0.00 | 54 | 1005.5 |
| 20260507163043 | 55 | 284 | 10.0 | 17.0 | 0.00 | 0.46 | 0.00 | 53 | 1005.5 |
| 20260507161548 | 56 | 309 | 5.0 | 14.0 | 0.00 | 0.46 | 0.00 | 54 | 1005.5 |
| 20260507160049 | 55 | 315 | 9.0 | 19.0 | 0.00 | 0.46 | 0.00 | 53 | 1005.6 |
| 20260507154553 | 56 | 300 | 11.0 | 16.0 | 0.00 | 0.46 | 0.00 | 51 | 1005.9 |
| 20260507153046 | 55 | 265 | 8.0 | 17.0 | 0.00 | 0.46 | 0.00 | 54 | 1006.0 |
| 20260507151546 | 55 | 222 | 6.0 | 15.0 | 0.00 | 0.46 | 0.00 | 55 | 1006.0 |
| 20260507150051 | 56 | 329 | 11.0 | 18.0 | 0.00 | 0.46 | 0.00 | 52 | 1006.0 |
| 20260507144550 | 55 | 283 | 10.0 | 19.0 | 0.00 | 0.46 | 0.00 | 50 | 1006.1 |
| 20260507143057 | 55 | 287 | 11.0 | 17.0 | 0.00 | 0.46 | 0.00 | 53 | 1006.0 |
| 20260507141553 | 55 | 305 | 9.0 | 17.0 | 0.00 | 0.46 | 0.00 | 54 | 1005.9 |
| 20260507140046 | 55 | 309 | 9.0 | 14.0 | 0.00 | 0.46 | 0.00 | 53 | 1005.9 |
| 20260507134545 | 54 | 289 | 6.0 | 13.0 | 0.00 | 0.46 | 0.00 | 56 | 1006.2 |
| 20260507133106 | 54 | 326 | 8.0 | 16.0 | 0.00 | 0.46 | 0.00 | 57 | 1006.4 |
| 20260507131553 | 54 | 287 | 8.0 | 12.0 | 0.00 | 0.46 | 0.00 | 58 | 1006.5 |
| 20260507130104 | 54 | 296 | 6.0 | 10.0 | 0.00 | 0.46 | 0.00 | 60 | 1006.5 |
| 20260507124547 | 53 | 343 | 7.0 | 14.0 | 0.00 | 0.46 | 0.00 | 63 | 1006.6 |
| 20260507123045 | 52 | 292 | 3.0 | 8.0 | 0.00 | 0.46 | 0.00 | 70 | 1006.7 |
| 20260507121549 | 51 | 291 | 3.0 | 9.0 | 0.00 | 0.46 | 0.00 | 75 | 1006.8 |
| 20260507120052 | 51 | 252 | 4.0 | 9.0 | 0.00 | 0.46 | 0.00 | 82 | 1006.8 |
| 20260507114614 | 50 | 294 | 5.0 | 9.0 | 0.00 | 0.46 | 0.00 | 82 | 1006.8 |
| 20260507113047 | 50 | 309 | 5.0 | 9.0 | 0.00 | 0.46 | 0.00 | 86 | 1006.7 |
| 20260507111540 | 49 | 266 | 1.0 | 4.0 | 0.00 | 0.46 | 0.00 | 88 | 1006.7 |
| 20260507110046 | 49 | 288 | 2.0 | 5.0 | 0.00 | 0.46 | 0.00 | 89 | 1006.8 |
| 20260507104546 | 49 | 0 | 0.0 | 2.0 | 0.00 | 0.46 | 0.00 | 89 | 1006.8 |
| 20260507103049 | 49 | 21 | 2.0 | 7.0 | 0.00 | 0.46 | 0.00 | 90 | 1006.4 |
| 20260507101544 | 49 | 308 | 2.0 | 6.0 | 0.00 | 0.46 | 0.00 | 91 | 1007.0 |
| 20260507100048 | 49 | 294 | 3.0 | 6.0 | 0.00 | 0.46 | 0.00 | 91 | 1006.9 |
| 20260507094547 | 49 | 286 | 3.0 | 8.0 | 0.00 | 0.46 | 0.00 | 90 | 1006.6 |
| 20260507093048 | 49 | 270 | 3.0 | 7.0 | 0.00 | 0.46 | 0.00 | 89 | 1006.7 |
| 20260507091546 | 49 | 296 | 3.0 | 7.0 | 0.00 | 0.46 | 0.00 | 89 | 1006.5 |
| 20260507090042 | 49 | 355 | 4.0 | 9.0 | 0.00 | 0.46 | 0.00 | 89 | 1005.8 |
| 20260507084556 | 49 | 333 | 4.0 | 9.0 | 0.00 | 0.46 | 0.00 | 88 | 1005.9 |
| 20260507083050 | 49 | 329 | 3.0 | 6.0 | 0.00 | 0.46 | 0.00 | 87 | 1005.9 |
| 20260507081548 | 49 | 297 | 4.0 | 10.0 | 0.00 | 0.46 | 0.00 | 87 | 1006.1 |
| 20260507080057 | 49 | 319 | 2.0 | 12.0 | 0.00 | 0.46 | 0.00 | 86 | 1005.8 |
| 20260507074544 | 50 | 299 | 4.0 | 14.0 | 0.00 | 0.46 | 0.00 | 85 | 1005.3 |
| 20260507073051 | 50 | 323 | 6.0 | 13.0 | 0.00 | 0.46 | 0.00 | 86 | 1005.3 |
| 20260507071545 | 51 | 315 | 5.0 | 11.0 | 0.00 | 0.46 | 0.00 | 87 | 1005.4 |
| 20260507070042 | 51 | 281 | 8.0 | 13.0 | 0.00 | 0.46 | 0.00 | 88 | 1005.3 |
| 20260507064542 | 51 | 292 | 5.0 | 10.0 | 0.00 | 0.46 | 0.00 | 91 | 1005.2 |
| 20260507063055 | 52 | 289 | 4.0 | 10.0 | 0.00 | 0.46 | 0.00 | 93 | 1005.0 |
| 20260507061548 | 52 | 242 | 5.0 | 10.0 | 0.00 | 0.46 | 0.00 | 93 | 1005.3 |
| 20260507060050 | 52 | 288 | 4.0 | 10.0 | 0.00 | 0.46 | 0.00 | 93 | 1005.0 |
| 20260507054546 | 52 | 271 | 3.0 | 8.0 | 0.00 | 0.46 | 0.00 | 93 | 1004.9 |
| 20260507053045 | 52 | 294 | 6.0 | 12.0 | 0.00 | 0.46 | 0.00 | 93 | 1005.1 |
| 20260507051550 | 53 | 284 | 3.0 | 11.0 | 0.00 | 0.46 | 0.00 | 92 | 1005.0 |
| 20260507050049 | 53 | 275 | 7.0 | 13.0 | 0.00 | 0.46 | 0.00 | 93 | 1005.0 |
| 20260507044541 | 54 | 247 | 7.0 | 12.0 | 0.02 | 0.46 | 0.00 | 94 | 1004.9 |
| 20260507043042 | 55 | 265 | 5.0 | 14.0 | 0.05 | 0.46 | 0.00 | 95 | 1004.8 |
| 20260507041541 | 56 | 291 | 6.0 | 13.0 | 0.05 | 0.46 | 0.00 | 95 | 1004.4 |
| 20260507040043 | 56 | 293 | 7.0 | 13.0 | 0.05 | 0.46 | 0.00 | 95 | 1004.5 |
| 20260507034551 | 56 | 303 | 7.0 | 14.0 | 0.03 | 0.44 | 0.44 | 92 | 1004.8 |
| 20260507033051 | 58 | 273 | 8.0 | 19.0 | 0.01 | 0.41 | 0.41 | 92 | 1004.9 |
| 20260507031543 | 59 | 300 | 9.0 | 19.0 | 0.01 | 0.41 | 0.41 | 98 | 1004.6 |
| 20260507030043 | 61 | 329 | 5.0 | 14.0 | 0.02 | 0.41 | 0.41 | 100 | 1004.2 |
| 20260507024600 | 62 | 317 | 7.0 | 13.0 | 0.02 | 0.41 | 0.41 | 100 | 1004.2 |
| 20260507023050 | 64 | 236 | 5.0 | 12.0 | 0.01 | 0.40 | 0.40 | 100 | 1004.0 |
| 20260507021547 | 64 | 215 | 5.0 | 12.0 | 0.01 | 0.40 | 0.40 | 100 | 1004.2 |
| 20260507020105 | 64 | 262 | 5.0 | 16.0 | 0.00 | 0.39 | 0.39 | 100 | 1004.2 |
| 20260507014553 | 64 | 236 | 6.0 | 13.0 | 0.00 | 0.39 | 0.39 | 100 | 1004.3 |
| 20260507013054 | 64 | 181 | 5.0 | 17.0 | 0.00 | 0.39 | 0.39 | 100 | 1004.2 |
| 20260507011547 | 64 | 216 | 6.0 | 15.0 | 0.00 | 0.39 | 0.39 | 100 | 1004.2 |
| 20260507010050 | 64 | 167 | 7.0 | 15.0 | 0.00 | 0.39 | 0.39 | 100 | 1004.4 |
| 20260507004553 | 64 | 222 | 7.0 | 15.0 | 0.00 | 0.39 | 0.39 | 100 | 1004.5 |
| 20260507003049 | 64 | 216 | 6.0 | 17.0 | 0.00 | 0.39 | 0.39 | 100 | 1004.4 |
| 20260507001545 | 64 | 218 | 6.0 | 16.0 | 0.00 | 0.39 | 0.39 | 100 | 1004.3 |
| 20260507000050 | 64 | 212 | 5.0 | 17.0 | 0.00 | 0.39 | 0.39 | 100 | 1004.1 |
| 20260506234551 | 64 | 209 | 8.0 | 20.0 | 0.00 | 0.39 | 0.39 | 100 | 1004.3 |
| 20260506233101 | 64 | 214 | 6.0 | 22.0 | 0.00 | 0.39 | 0.39 | 100 | 1004.4 |
| 20260506231553 | 64 | 213 | 9.0 | 17.0 | 0.00 | 0.39 | 0.39 | 100 | 1004.3 |
| 20260506230049 | 64 | 188 | 8.0 | 17.0 | 0.00 | 0.39 | 0.39 | 100 | 1004.4 |
| 20260506224541 | 64 | 178 | 7.0 | 15.0 | 0.00 | 0.39 | 0.39 | 100 | 1004.5 |
| 20260506223045 | 64 | 174 | 7.0 | 17.0 | 0.00 | 0.39 | 0.39 | 100 | 1004.7 |
| 20260506221549 | 64 | 209 | 9.0 | 22.0 | 0.01 | 0.39 | 0.39 | 100 | 1004.7 |
| 20260506220049 | 65 | 207 | 9.0 | 19.0 | 0.01 | 0.39 | 0.39 | 100 | 1004.8 |
| 20260506214550 | 65 | 199 | 6.0 | 13.0 | 0.02 | 0.39 | 0.39 | 100 | 1005.0 |